Terminal Aerodrome Forecast
Issued by NWS Charleston, WV

Current Version | Previous Version | Text Only | Print | Product List | Glossary Off
Versions: 1 2 3 4 5 6 7 8 9 10 11 12 13 14 15 16 17 18 19 20 21 22 23 24 25

000
FTUS41 KRLX 250557 CCA
TAFEKN
TAF COR
KEKN 250557Z 2506/2606 31006KT 6SM SHRA BKN027 OVC060
      TEMPO 2506/2509 2SM SHRA BKN022
     FM250900 15004KT 4SM SHRA OVC006
     FM251300 23004KT P6SM SHRA BKN011
     FM251600 24006KT P6SM SHRA BKN045=

USA.gov is the U.S. government's official web portal to all federal, state and local government web resources and services.